Find Anik F2

NORAD ID: 28378 Int'l Des: 2004-027 Owner: TCAN Country: CA operational
HEOCIRCULARGSO

現在のビュー

3D地球を読み込み中...

Anik F2について

説明を読み込み中...

次回通過

Passes for default location (London). Set your location on the main map for personalized predictions.

高度履歴

Loading altitude history...

軌道要素

1 28378U 04027A 26150.62297897 -.00000039 00000-0 00000-0 0 9998
2 28378 3.2427 79.6757 0004606 355.7484 285.8514 1.00272155 41080
Epoch: May 30, 2026 • Age: 9 hours

現在のステータス

高度 35775.4 km
速度 3.08 km/s
衛星直下点 2.63°N, 111.13°W
打ち上げ日 Jul 18, 2004
運用期間 21.8 years
タイプ other

技術仕様

分類 Payload
質量 5965.00 kg
乾燥質量 3700.00 kg
総質量 5965.00 kg
長さ 6.20 m
直径 3.50 m
スパン 45.60 m
形状 Box + 2 Pan
製造者 BOES
バスタイプ BSS-702HP
フェーズステータス In Orbit
所有者/国 TCAN/CA

Most Searched